| time (UTC) | temp F | wind direction | speed MPH | gust MPH | rain 1hr in | rain 24hr in | rain mn in | humidity % | barometer mb |
| 20260508231316 | 68 | 293 | 5.0 | 7.0 | 0.00 | 0.00 | 0.00 | 33 | 1023.3 |
| 20260508230316 | 69 | 293 | 3.0 | 6.0 | 0.00 | 0.00 | 0.00 | 32 | 1023.4 |
| 20260508225336 | 69 | 293 | 6.0 | 8.0 | 0.00 | 0.00 | 0.00 | 33 | 1023.5 |
| 20260508224316 | 68 | 338 | 2.0 | 3.0 | 0.00 | 0.00 | 0.00 | 34 | 1023.5 |
| 20260508223316 | 67 | 203 | 4.0 | 6.0 | 0.00 | 0.00 | 0.00 | 33 | 1023.5 |
| 20260508222316 | 68 | 315 | 2.0 | 2.0 | 0.00 | 0.00 | 0.00 | 31 | 1023.5 |
| 20260508221316 | 67 | 0 | 3.0 | 4.0 | 0.00 | 0.00 | 0.00 | 35 | 1023.5 |
| 20260508220316 | 67 | 248 | 2.0 | 3.0 | 0.00 | 0.00 | 0.00 | 34 | 1023.6 |
| 20260508215315 | 67 | 270 | 3.0 | 5.0 | 0.00 | 0.00 | 0.00 | 33 | 1023.6 |
| 20260508214316 | 67 | 293 | 6.0 | 9.0 | 0.00 | 0.00 | 0.00 | 35 | 1023.7 |
| 20260508213316 | 66 | 0.0 | 1.0 | 0.00 | 0.00 | 0.00 | 35 | 1023.7 | |
| 20260508212335 | 66 | 315 | 4.0 | 6.0 | 0.00 | 0.00 | 0.00 | 35 | 1023.7 |
| 20260508211317 | 65 | 225 | 2.0 | 3.0 | 0.00 | 0.00 | 0.00 | 34 | 1023.7 |
| 20260508210317 | 65 | 248 | 9.0 | 11.0 | 0.00 | 0.00 | 0.00 | 35 | 1023.6 |
| 20260508205317 | 65 | 293 | 1.0 | 3.0 | 0.00 | 0.00 | 0.00 | 36 | 1023.7 |
| 20260508204316 | 64 | 270 | 3.0 | 7.0 | 0.00 | 0.00 | 0.00 | 38 | 1023.6 |
| 20260508203317 | 64 | 135 | 4.0 | 4.0 | 0.00 | 0.00 | 0.00 | 36 | 1023.6 |
| 20260508202317 | 64 | 45 | 1.0 | 3.0 | 0.00 | 0.00 | 0.00 | 36 | 1023.6 |
| 20260508201317 | 64 | 293 | 2.0 | 3.0 | 0.00 | 0.00 | 0.00 | 38 | 1023.7 |
| 20260508200317 | 62 | 180 | 2.0 | 4.0 | 0.00 | 0.00 | 0.00 | 40 | 1023.8 |
| 20260508195337 | 62 | 338 | 1.0 | 2.0 | 0.00 | 0.00 | 0.00 | 41 | 1023.7 |
| 20260508194317 | 61 | 338 | 3.0 | 6.0 | 0.00 | 0.00 | 0.00 | 43 | 1023.7 |
| 20260508193317 | 60 | 338 | 3.0 | 4.0 | 0.00 | 0.00 | 0.00 | 44 | 1023.5 |
| 20260508192317 | 60 | 90 | 2.0 | 2.0 | 0.00 | 0.00 | 0.00 | 42 | 1023.7 |
| 20260508191317 | 61 | 315 | 3.0 | 5.0 | 0.00 | 0.00 | 0.00 | 42 | 1023.7 |
| 20260508190338 | 61 | 45 | 1.0 | 3.0 | 0.00 | 0.00 | 0.00 | 43 | 1023.7 |
| 20260508185317 | 61 | 293 | 3.0 | 4.0 | 0.00 | 0.00 | 0.00 | 43 | 1023.7 |
| 20260508184317 | 59 | 293 | 3.0 | 7.0 | 0.00 | 0.00 | 0.00 | 46 | 1023.7 |
| 20260508183317 | 58 | 225 | 4.0 | 8.0 | 0.00 | 0.00 | 0.00 | 46 | 1023.7 |
| 20260508182317 | 58 | 225 | 2.0 | 4.0 | 0.00 | 0.00 | 0.00 | 47 | 1023.7 |
| 20260508181317 | 58 | 225 | 2.0 | 5.0 | 0.00 | 0.00 | 0.00 | 47 | 1023.5 |
| 20260508180317 | 58 | 338 | 2.0 | 3.0 | 0.00 | 0.00 | 0.00 | 50 | 1023.5 |
| 20260508175317 | 58 | 248 | 2.0 | 4.0 | 0.00 | 0.00 | 0.00 | 48 | 1023.6 |
| 20260508174317 | 56 | 225 | 1.0 | 2.0 | 0.00 | 0.00 | 0.00 | 51 | 1023.3 |
| 20260508173317 | 55 | 293 | 3.0 | 5.0 | 0.00 | 0.00 | 0.00 | 52 | 1023.3 |
| 20260508172459 | 55 | 135 | 2.0 | 4.0 | 0.00 | 0.00 | 0.00 | 53 | 1023.2 |
| 20260508171317 | 54 | 225 | 3.0 | 5.0 | 0.00 | 0.00 | 0.00 | 54 | 1023.0 |
| 20260508170317 | 53 | 225 | 2.0 | 3.0 | 0.00 | 0.00 | 0.00 | 55 | 1022.6 |
| 20260508165316 | 53 | 180 | 3.0 | 4.0 | 0.00 | 0.00 | 0.00 | 56 | 1022.5 |
| 20260508164317 | 53 | 180 | 3.0 | 5.0 | 0.00 | 0.00 | 0.00 | 56 | 1022.6 |
| 20260508163317 | 53 | 158 | 3.0 | 5.0 | 0.00 | 0.00 | 0.00 | 56 | 1022.7 |
| 20260508162316 | 52 | 90 | 3.0 | 4.0 | 0.00 | 0.00 | 0.00 | 59 | 1022.3 |
| 20260508161317 | 52 | 135 | 5.0 | 8.0 | 0.00 | 0.00 | 0.00 | 58 | 1022.4 |
| 20260508160317 | 51 | 135 | 6.0 | 7.0 | 0.00 | 0.00 | 0.00 | 59 | 1022.3 |
| 20260508155317 | 51 | 158 | 4.0 | 7.0 | 0.00 | 0.00 | 0.00 | 60 | 1022.2 |
| 20260508154317 | 51 | 90 | 2.0 | 2.0 | 0.00 | 0.00 | 0.00 | 60 | 1022.1 |
| 20260508153317 | 51 | 23 | 1.0 | 2.0 | 0.00 | 0.00 | 0.00 | 60 | 1022.3 |
| 20260508152317 | 50 | 23 | 1.0 | 2.0 | 0.00 | 0.00 | 0.00 | 60 | 1022.4 |
| 20260508151336 | 50 | 315 | 2.0 | 5.0 | 0.00 | 0.00 | 0.00 | 61 | 1022.6 |
| 20260508150336 | 50 | 293 | 1.0 | 2.0 | 0.00 | 0.00 | 0.00 | 63 | 1022.6 |
| 20260508145317 | 49 | 293 | 2.0 | 3.0 | 0.00 | 0.00 | 0.00 | 63 | 1022.8 |
| 20260508144316 | 49 | 293 | 2.0 | 4.0 | 0.00 | 0.00 | 0.00 | 64 | 1022.8 |
| 20260508143316 | 48 | 338 | 3.0 | 5.0 | 0.00 | 0.00 | 0.00 | 64 | 1022.6 |
| 20260508142316 | 48 | 315 | 2.0 | 2.0 | 0.00 | 0.00 | 0.00 | 65 | 1022.4 |
| 20260508141316 | 48 | 270 | 3.0 | 4.0 | 0.00 | 0.00 | 0.00 | 65 | 1022.3 |
| 20260508140317 | 48 | 315 | 2.0 | 3.0 | 0.00 | 0.00 | 0.00 | 65 | 1022.1 |
| 20260508135316 | 48 | 293 | 3.0 | 7.0 | 0.00 | 0.00 | 0.00 | 64 | 1022.0 |
| 20260508134316 | 48 | 293 | 2.0 | 3.0 | 0.00 | 0.00 | 0.00 | 65 | 1021.7 |
| 20260508133316 | 48 | 270 | 2.0 | 3.0 | 0.00 | 0.00 | 0.00 | 65 | 1021.4 |
| 20260508132316 | 48 | 293 | 1.0 | 2.0 | 0.00 | 0.00 | 0.00 | 64 | 1021.2 |
| 20260508131316 | 49 | 270 | 1.0 | 3.0 | 0.00 | 0.00 | 0.00 | 64 | 1021.0 |
| 20260508131116 | 49 | 270 | 1.0 | 2.0 | 0.00 | 0.00 | 0.00 | 64 | 1021.0 |
| 20260508130117 | 49 | 0.0 | 0.0 | 0.00 | 0.00 | 0.00 | 64 | 1020.9 | |
| 20260508125137 | 49 | 270 | 1.0 | 2.0 | 0.00 | 0.00 | 0.00 | 63 | 1020.9 |
| 20260508124117 | 49 | 0.0 | 1.0 | 0.00 | 0.00 | 0.00 | 63 | 1020.7 | |
| 20260508123117 | 50 | 270 | 1.0 | 2.0 | 0.00 | 0.00 | 0.00 | 63 | 1020.7 |
| 20260508122116 | 50 | 0.0 | 1.0 | 0.00 | 0.00 | 0.00 | 63 | 1020.6 | |
| 20260508121116 | 50 | 0.0 | 0.0 | 0.00 | 0.00 | 0.00 | 63 | 1020.6 | |
| 20260508120117 | 50 | 0.0 | 1.0 | 0.00 | 0.00 | 0.00 | 63 | 1020.5 | |
| 20260508115157 | 50 | 0.0 | 1.0 | 0.00 | 0.00 | 0.00 | 63 | 1020.3 | |
| 20260508114116 | 50 | 270 | 1.0 | 1.0 | 0.00 | 0.00 | 0.00 | 63 | 1020.2 |
| 20260508113116 | 50 | 270 | 1.0 | 1.0 | 0.00 | 0.00 | 0.00 | 62 | 1020.0 |
| 20260508112137 | 50 | 0.0 | 0.0 | 0.00 | 0.00 | 0.00 | 62 | 1019.9 | |
| 20260508111137 | 50 | 270 | 1.0 | 1.0 | 0.00 | 0.00 | 0.00 | 62 | 1019.9 |
| 20260508110136 | 50 | 270 | 1.0 | 2.0 | 0.00 | 0.00 | 0.00 | 62 | 1019.8 |
| 20260508105117 | 50 | 0.0 | 1.0 | 0.00 | 0.00 | 0.00 | 62 | 1019.7 | |
| 20260508104116 | 50 | 0.0 | 1.0 | 0.00 | 0.00 | 0.00 | 61 | 1019.5 | |
| 20260508103137 | 50 | 270 | 1.0 | 1.0 | 0.00 | 0.00 | 0.00 | 61 | 1019.5 |
| 20260508102116 | 50 | 0.0 | 1.0 | 0.00 | 0.00 | 0.00 | 60 | 1019.4 | |
| 20260508101116 | 51 | 270 | 1.0 | 1.0 | 0.00 | 0.00 | 0.00 | 60 | 1019.4 |
| 20260508100116 | 51 | 270 | 1.0 | 2.0 | 0.00 | 0.00 | 0.00 | 60 | 1019.3 |
| 20260508095116 | 51 | 270 | 1.0 | 2.0 | 0.00 | 0.00 | 0.00 | 59 | 1019.3 |
| 20260508094116 | 51 | 270 | 1.0 | 2.0 | 0.00 | 0.00 | 0.00 | 60 | 1019.2 |
| 20260508093137 | 51 | 0.0 | 1.0 | 0.00 | 0.00 | 0.00 | 59 | 1019.1 | |
| 20260508092116 | 51 | 0.0 | 0.0 | 0.00 | 0.00 | 0.00 | 58 | 1019.0 | |
| 20260508091116 | 52 | 270 | 1.0 | 1.0 | 0.00 | 0.00 | 0.00 | 58 | 1018.8 |
| 20260508090116 | 52 | 270 | 1.0 | 1.0 | 0.00 | 0.00 | 0.00 | 58 | 1018.8 |
| 20260508085136 | 52 | 270 | 1.0 | 1.0 | 0.00 | 0.00 | 0.00 | 57 | 1018.7 |
| 20260508084137 | 52 | 270 | 1.0 | 1.0 | 0.00 | 0.00 | 0.00 | 56 | 1018.6 |
| 20260508083116 | 53 | 0.0 | 1.0 | 0.00 | 0.00 | 0.00 | 55 | 1018.5 | |
| 20260508082116 | 53 | 270 | 1.0 | 1.0 | 0.00 | 0.00 | 0.00 | 54 | 1018.5 |
| 20260508081136 | 53 | 270 | 1.0 | 2.0 | 0.00 | 0.00 | 0.00 | 54 | 1018.5 |
| 20260508080116 | 54 | 270 | 1.0 | 2.0 | 0.00 | 0.00 | 0.00 | 54 | 1018.5 |
| 20260508075116 | 54 | 270 | 2.0 | 3.0 | 0.00 | 0.00 | 0.00 | 53 | 1018.6 |
| 20260508074116 | 54 | 270 | 1.0 | 2.0 | 0.00 | 0.00 | 0.00 | 53 | 1018.4 |
| 20260508073116 | 54 | 270 | 1.0 | 2.0 | 0.00 | 0.00 | 0.00 | 53 | 1018.5 |
| 20260508072115 | 54 | 270 | 3.0 | 4.0 | 0.00 | 0.00 | 0.00 | 53 | 1018.4 |
| 20260508071136 | 54 | 270 | 1.0 | 2.0 | 0.00 | 0.00 | 0.00 | 52 | 1018.4 |
| 20260508070116 | 54 | 270 | 2.0 | 2.0 | 0.00 | 0.00 | 0.00 | 52 | 1018.5 |
| 20260508065116 | 55 | 0.0 | 0.0 | 0.00 | 0.00 | 0.00 | 49 | 1018.4 | |
| 20260508064137 | 55 | 0.0 | 0.0 | 0.00 | 0.00 | 0.00 | 50 | 1018.3 | |
| 20260508063116 | 56 | 293 | 1.0 | 1.0 | 0.00 | 0.00 | 0.00 | 49 | 1018.3 |
| 20260508062116 | 57 | 0.0 | 1.0 | 0.00 | 0.00 | 0.00 | 47 | 1018.4 | |
| 20260508061116 | 57 | 0.0 | 0.0 | 0.00 | 0.00 | 0.00 | 46 | 1018.3 | |
| 20260508060137 | 58 | 270 | 2.0 | 3.0 | 0.00 | 0.00 | 0.00 | 45 | 1018.4 |
| 20260508055117 | 58 | 315 | 2.0 | 2.0 | 0.00 | 0.00 | 0.00 | 44 | 1018.3 |
| 20260508054137 | 59 | 293 | 2.0 | 3.0 | 0.00 | 0.00 | 0.00 | 43 | 1018.3 |
| 20260508053116 | 59 | 270 | 2.0 | 3.0 | 0.00 | 0.00 | 0.00 | 41 | 1018.4 |
| 20260508052116 | 60 | 293 | 2.0 | 2.0 | 0.00 | 0.00 | 0.00 | 40 | 1018.4 |
| 20260508051117 | 60 | 315 | 1.0 | 2.0 | 0.00 | 0.00 | 0.00 | 39 | 1018.3 |
| 20260508050116 | 60 | 315 | 1.0 | 2.0 | 0.00 | 0.00 | 0.00 | 39 | 1018.4 |
| 20260508045117 | 60 | 315 | 1.0 | 2.0 | 0.00 | 0.00 | 0.00 | 38 | 1018.4 |
| 20260508044117 | 60 | 315 | 2.0 | 3.0 | 0.00 | 0.00 | 0.00 | 38 | 1018.3 |
| 20260508043116 | 61 | 338 | 1.0 | 3.0 | 0.00 | 0.00 | 0.00 | 38 | 1018.3 |
| 20260508042116 | 61 | 338 | 2.0 | 3.0 | 0.00 | 0.00 | 0.00 | 37 | 1018.3 |
| 20260508041117 | 61 | 338 | 2.0 | 3.0 | 0.00 | 0.00 | 0.00 | 36 | 1018.3 |
| 20260508040116 | 62 | 0.0 | 0.0 | 0.00 | 0.00 | 0.00 | 37 | 1018.1 | |
| 20260508035137 | 62 | 315 | 1.0 | 1.0 | 0.00 | 0.00 | 0.00 | 36 | 1018.1 |
| 20260508034116 | 62 | 315 | 1.0 | 3.0 | 0.00 | 0.00 | 0.00 | 35 | 1018.0 |
| 20260508033136 | 63 | 315 | 1.0 | 2.0 | 0.00 | 0.00 | 0.00 | 35 | 1017.9 |
| 20260508032116 | 63 | 315 | 1.0 | 2.0 | 0.00 | 0.00 | 0.00 | 34 | 1017.8 |
| 20260508031116 | 64 | 338 | 2.0 | 3.0 | 0.00 | 0.00 | 0.00 | 35 | 1017.7 |
| 20260508030116 | 64 | 0 | 2.0 | 3.0 | 0.00 | 0.00 | 0.00 | 35 | 1017.7 |
| 20260508025116 | 64 | 0 | 3.0 | 4.0 | 0.00 | 0.00 | 0.00 | 35 | 1017.7 |
| 20260508024137 | 65 | 338 | 3.0 | 4.0 | 0.00 | 0.00 | 0.00 | 34 | 1017.9 |
| 20260508023116 | 65 | 0 | 1.0 | 1.0 | 0.00 | 0.00 | 0.00 | 34 | 1017.9 |
| 20260508022116 | 66 | 0.0 | 1.0 | 0.00 | 0.00 | 0.00 | 33 | 1017.8 | |
| 20260508021116 | 67 | 338 | 1.0 | 2.0 | 0.00 | 0.00 | 0.00 | 32 | 1017.9 |
| 20260508020136 | 67 | 293 | 2.0 | 3.0 | 0.00 | 0.00 | 0.00 | 30 | 1018.1 |
| 20260508015116 | 68 | 23 | 1.0 | 2.0 | 0.00 | 0.00 | 0.00 | 26 | 1018.1 |
| 20260508014115 | 68 | 338 | 2.0 | 3.0 | 0.00 | 0.00 | 0.00 | 25 | 1018.1 |
| 20260508013137 | 68 | 0 | 3.0 | 4.0 | 0.00 | 0.00 | 0.00 | 24 | 1018.2 |
| 20260508012136 | 69 | 315 | 2.0 | 4.0 | 0.00 | 0.00 | 0.00 | 23 | 1018.2 |
| 20260508011115 | 71 | 0.0 | 2.0 | 0.00 | 0.00 | 0.00 | 21 | 1018.3 | |
| 20260508010116 | 71 | 338 | 2.0 | 3.0 | 0.00 | 0.00 | 0.00 | 20 | 1018.4 |
| 20260508005156 | 71 | 0 | 4.0 | 5.0 | 0.00 | 0.00 | 0.00 | 20 | 1018.5 |
| 20260508004116 | 72 | 0 | 2.0 | 4.0 | 0.00 | 0.00 | 0.00 | 21 | 1018.6 |
| 20260508003116 | 72 | 293 | 3.0 | 4.0 | 0.00 | 0.00 | 0.00 | 22 | 1018.6 |
| 20260508002116 | 71 | 338 | 6.0 | 9.0 | 0.00 | 0.00 | 0.00 | 21 | 1018.7 |
| 20260508001116 | 71 | 0 | 4.0 | 8.0 | 0.00 | 0.00 | 0.00 | 21 | 1018.7 |
| 20260508000116 | 72 | 45 | 2.0 | 3.0 | 0.00 | 0.00 | 0.00 | 23 | 1018.8 |
| 20260507235115 | 71 | 23 | 1.0 | 2.0 | 0.00 | 0.00 | 0.00 | 24 | 1018.9 |
| 20260507234115 | 72 | 338 | 7.0 | 10.0 | 0.00 | 0.00 | 0.00 | 25 | 1019.2 |
| 20260507233115 | 72 | 338 | 2.0 | 5.0 | 0.00 | 0.00 | 0.00 | 24 | 1019.3 |
| 20260507232115 | 71 | 315 | 5.0 | 10.0 | 0.00 | 0.00 | 0.00 | 24 | 1019.3 |